Starlink 32864

operational
NORAD ID: 62862 Int'l Des: 2025-022 Owner: SPXS Country: US Constellation: starlink
LEOCIRCULAR

About Starlink 32864

Description loading...

Live Position

Loading 3D Globe...

Upcoming Passes

Altitude History

Altitude vs Time

uPlot chart will show altitude changes over time

Two-Line Element Set

1 62862U 25022J 26034.08936685 .00033298 00000-0 11304-2 0 9991
2 62862 53.1599 290.2508 0001131 87.4333 272.6797 15.30226287 56601
Epoch: Feb 3, 2026 • Age: 23 hours

Current Status

Altitude 475.6 km
Velocity 7.63 km/s
Sub-Earth Point 2.05°N, 42.81°W
Launch Date Feb 2, 2025
Age 1 years
Type internet

Technical Details

Classification Payload
Mass 730.00 kg
Dry Mass 700.00 kg
Total Mass 730.00 kg
Length 0.30 m
Diameter 4.10 m
Span 29.00 m
Shape Box + pan
Manufacturer SPXS
Bus Type Starlink V2M
Phase Status In Orbit
Owner/State SPXS/US

Large Constellations

Loading constellations...